Kansas Department of Transportation
RWIS(Road and Runway Information System) Map and Weather Data





Station
Surface
Air
Wind
Site IDSensor TypeLocationTemperature (°F)Temperature (°F)Humidity (%)Speed (mi/h)Gusts (mi/h)DirectionTime
123002AtmosphericBonner Springs 755247ESEAug 3 2021 11:55AM
123002ApproachBonner SpringsUnavailable     Aug 3 2021 11:55AM
123002DeckBonner SpringsUnavailable     Aug 3 2021 11:55AM
123014AtmosphericBull Creek 775227ESEAug 3 2021 11:55AM
123014DeckBull Creek104     Aug 3 2021 11:55AM
123014DepartureBull Creek      Aug 3 2021 11:55AM
123015AtmosphericLeavenworth 756326NAug 3 2021 11:55AM
123015DeckLeavenworth111     Aug 3 2021 11:55AM
123015DepartureLeavenworth      Aug 3 2021 11:55AM
123020AtmosphericMayetta 771137ESEAug 3 2021 11:55AM
505000AtmosphericKTA 1 82900NAug 3 2021 11:50AM
505000ApproachKTA 1106     Aug 3 2021 12:00PM
505000DeckKTA 1108     Aug 3 2021 12:00PM
505001AtmosphericKTA 2 844214ESEAug 3 2021 11:50AM
505001ApproachKTA 2102     Aug 3 2021 11:50AM
505001DeckKTA 2106     Aug 3 2021 11:50AM
505002AtmosphericKTA 3 816201SSEAug 3 2021 11:50AM
505002ApproachKTA 3111     Aug 3 2021 11:50AM
505002DeckKTA 3104     Aug 3 2021 11:50AM
505003AtmosphericKTA 4 814300NAug 3 2021 11:50AM
505003ApproachKTA 4Unavailable     Aug 3 2021 11:50AM
505003DeckKTA 4Unavailable     Aug 3 2021 11:50AM
505004AtmosphericKTA 5 799937WSWAug 3 2021 11:50AM
505004RoadwayKTA 5108     Aug 3 2021 11:50AM
505004RoadwayKTA 5108     Aug 3 2021 11:50AM
505005AtmosphericKTA 6 72732 EAug 3 2021 9:10AM
505005Approach KTA 684     Aug 3 2021 9:10AM
505005DeckKTA 679     Aug 3 2021 9:10AM
505006AtmosphericKTA 7 795516NAug 3 2021 11:52AM
505006ApproachKTA 7113     Aug 3 2021 11:52AM
505006DeckKTA 799     Aug 3 2021 11:52AM
505007AtmosphericKTA 8 795114SSEAug 3 2021 11:52AM
505007ApproachKTA 8108     Aug 3 2021 11:52AM
505007DeckKTA 8102     Aug 3 2021 11:52AM
505008AtmosphericKTA 9 794624WNWAug 3 2021 11:52AM
505008ApproachKTA 9113     Aug 3 2021 11:52AM
505008DeckKTA 9102     Aug 3 2021 11:52AM
505009AtmosphericKTA 10 825116ESEAug 3 2021 11:52AM
505009ApproachKTA 10Unavailable     Aug 3 2021 11:52AM
505009DeckKTA 10102     Aug 3 2021 11:52AM
505010AtmosphericWebb 823916ENEAug 3 2021 11:55AM
505010DeckWebb102     Aug 3 2021 11:55AM
505010NullWebbUnavailable     Aug 3 2021 11:55AM
505014AtmosphericI-135 794926WAug 3 2021 11:55AM
505014ApproachI-135100     Aug 3 2021 11:55AM
505014DeckI-135108     Aug 3 2021 11:55AM
540000AtmosphericBlue Rapids 794125EAug 3 2021 11:55AM
540000DeckBlue Rapids102     Aug 3 2021 11:55AM
540000DepartureBlue Rapids      Aug 3 2021 11:55AM
540001AtmosphericSabetha 755626ESEAug 3 2021 11:55AM
540001ApproachSabethaUnavailable     Aug 3 2021 11:55AM
540001DeckSabethaUnavailable     Aug 3 2021 11:55AM
540002AtmosphericWestgate 843624NAug 3 2021 11:55AM
540002DeckWestgate104     Aug 3 2021 11:55AM
540002DepartureWestgateUnavailable     Aug 3 2021 11:55AM
540003AtmosphericEmporia 795527ENEAug 3 2021 11:55AM
540003ApproachEmporia99     Aug 3 2021 11:55AM
540003DeckEmporia95     Aug 3 2021 11:55AM
540005AtmosphericLawrence 795115NAug 3 2021 11:55AM
540005ApproachLawrenceUnavailable     Aug 3 2021 11:55AM
540005DeckLawrence109     Aug 3 2021 11:55AM
540006AtmosphericTroy 796027SEAug 3 2021 11:55AM
540006DeckTroy100     Aug 3 2021 11:55AM
540006DepartureTroy111     Aug 3 2021 11:55AM
540007AtmosphericManhattan 756246ENEAug 3 2021 11:55AM
540007DepartureManhattan102     Aug 3 2021 11:55AM
540007DeckManhattan109     Aug 3 2021 11:55AM
541000AtmosphericElkhart 82341417SAug 3 2021 11:55AM
541000ApproachElkhart      Aug 3 2021 11:55AM
541000DeckElkhart108     Aug 3 2021 11:55AM
541001AtmosphericSyracuse 82431017SSWAug 3 2021 11:55AM
541001Out of Service for WinterSyracuse106     Aug 3 2021 11:55AM
541001DeckSyracuse100     Aug 3 2021 11:55AM
541003AtmosphericFord 823258SSEAug 3 2021 11:55AM
541003DeckFord      Aug 3 2021 11:55AM
541003DepartureFord      Aug 3 2021 11:55AM
541004AtmosphericScott 59251216SAug 3 2021 11:55AM
541004DepartureScott111     Aug 3 2021 11:55AM
541005AtmosphericNess 843749SAug 3 2021 11:55AM
541005DeckNess109     Aug 3 2021 11:55AM
541005DepartureNess117     Aug 3 2021 11:55AM
541007AtmosphericGarden City 8242915SAug 3 2021 11:55AM
541007DeckGarden City109     Aug 3 2021 11:55AM
543000AtmosphericJunction City      Aug 3 2021 5:30AM
543000ApproachJunction City      Aug 3 2021 5:30AM
543000DeckJunction City      Aug 3 2021 5:30AM
543001AtmosphericEllsworth 794769SSEAug 3 2021 11:55AM
543001RoadwayEllsworth108     Aug 3 2021 11:55AM
543002AtmosphericMcPherson 814546SAug 3 2021 11:55AM
543002ApproachMcPherson109     Aug 3 2021 11:55AM
543002DeckMcPherson72     Aug 3 2021 11:55AM
543003AtmosphericSalina 792957NNEAug 3 2021 11:55AM
543003DepartureSalina108     Aug 3 2021 11:55AM
543003RoadwaySalina106     Aug 3 2021 11:55AM
543004AtmosphericConcordia 7560411SAug 3 2021 11:55AM
543004ApproachConcordia109     Aug 3 2021 11:55AM
543004DeckConcordia104     Aug 3 2021 11:55AM
543005AtmosphericPeabody 775636SSEAug 3 2021 11:55AM
543005ApproachPeabody117     Aug 3 2021 11:55AM
543005DeckPeabody109     Aug 3 2021 11:55AM
560000AtmosphericEdson 8632412SAug 3 2021 11:55AM
560000RoadwayEdson115     Aug 3 2021 11:55AM
560000RoadwayEdson108     Aug 3 2021 11:55AM
560001AtmosphericOakley 814349SSWAug 3 2021 11:55AM
560001ApproachOakley109     Aug 3 2021 11:55AM
560001DeckOakley106     Aug 3 2021 11:55AM
560002AtmosphericAtwood 863737NNEAug 3 2021 11:55AM
560002ApproachAtwood122     Aug 3 2021 11:55AM
560002DeckAtwood115     Aug 3 2021 11:55AM
560003AtmosphericJennings 823837SAug 3 2021 11:55AM
560003ApproachJennings118     Aug 3 2021 11:55AM
560003DeckJennings108     Aug 3 2021 11:55AM
560003DeckJennings108     Aug 3 2021 11:55AM
560004AtmosphericWakeeney 81391114SSEAug 3 2021 11:55AM
560004ApproachWakeeney108     Aug 3 2021 11:55AM
560004DeckWakeeney104     Aug 3 2021 11:55AM
560005AtmosphericWalker 8137611SAug 3 2021 11:55AM
560005ApproachWalker      Aug 3 2021 11:55AM
560005DeckWalker      Aug 3 2021 11:55AM
560006AtmosphericBow Creek(Stockton) 793200SEAug 3 2021 11:55AM
560006ApproachBow Creek(Stockton)115     Aug 3 2021 11:55AM
560006DeckBow Creek(Stockton)Unavailable     Aug 3 2021 11:55AM
560007AtmosphericLebanon 775359SSEAug 3 2021 11:55AM
560007ApproachLebanonUnavailable     Aug 3 2021 11:55AM
560007DeckLebanon106     Aug 3 2021 11:55AM
560008AtmosphericWallace 8634914SAug 3 2021 11:55AM
560008ApproachWallace      Aug 3 2021 11:55AM
560008DeckWallace109     Aug 3 2021 11:55AM
572000AtmosphericGreat Bend 7944610SSWAug 3 2021 11:55AM
572000ApproachGreat Bend      Aug 3 2021 11:55AM
572000DeckGreat Bend      Aug 3 2021 11:55AM
572001AtmosphericPratt 823504SAug 3 2021 11:55AM
572001ApproachPratt115     Aug 3 2021 11:55AM
572001DeckPratt108     Aug 3 2021 11:55AM
572002AtmosphericAnthony 815045SEAug 3 2021 11:55AM
572002ApproachAnthony122     Aug 3 2021 11:55AM
572002DeckAnthony115     Aug 3 2021 11:55AM
573001AtmosphericGarnett 774823ENEAug 3 2021 11:55AM
573001ApproachGarnettUnavailable     Aug 3 2021 11:55AM
573001DeckGarnett      Aug 3 2021 11:55AM
573003AtmosphericChetopa 814647ENEAug 3 2021 11:55AM
573003DeckChetopa118     Aug 3 2021 11:55AM
573003DeckChetopa118     Aug 3 2021 11:55AM
573003DepartureChetopa      Aug 3 2021 11:55AM
573004AtmosphericChanute 776125NAug 3 2021 11:55AM
573004ApproachChanute      Aug 3 2021 11:55AM
573004DeckChanute      Aug 3 2021 11:55AM